Starlink 32924

operational
NORAD ID: 63092 Int'l Des: 2025-037 Owner: SPXS Country: US Constellation: starlink
LEOCIRCULAR

About Starlink 32924

Description loading...

Live Position

Loading 3D Globe...

Upcoming Passes

Altitude History

Altitude vs Time

uPlot chart will show altitude changes over time

Two-Line Element Set

1 63092U 25037R 25351.29946425 .00001068 00000-0 97264-4 0 9991
2 63092 69.9998 202.0744 0002422 277.5842 82.5042 14.98336762 46264
Epoch: Dec 17, 2025 • Age: 7 hours

Current Status

Altitude 584.1 km
Velocity 7.57 km/s
Sub-Earth Point 64.07°N, 35.71°E
Launch Date Feb 23, 2025
Age 0.8 years
Type internet

Technical Details

Classification Payload
Mass 730.00 kg
Dry Mass 700.00 kg
Total Mass 730.00 kg
Length 0.30 m
Diameter 4.10 m
Span 29.00 m
Shape Box + pan
Manufacturer SPXS
Bus Type Starlink V2M
Phase Status In Orbit
Owner/State SPXS/US

Large Constellations

Loading constellations...